Temperature
8 6 6 6 7 8 7 7 7 8 7 7 7 7 8 8 8 8 8 9 9 10 10 10 10 10 10 10 10 10 10 10 10 10 11 11 10 10 10 10 10 10 10 10
6 6 7 7 7 7 7 7 7 7 7 7 7 7 7 7 7 8 8 8 9 9 10 10 10 10 10 10 10 10 10 10 10 10 10 10 10 10 10 10 10 10 10 10
7 7 7 7 7 7 7 7 7 7 7 7 7 8 8 8 8 8 8 8 9 9 10 10 10 10 10 10 10 10 9 9 10 10 10 10 10 10 10 10 10 10 9 9
6 6 7 7 7 7 7 7 7 7 6 6 7 7 7 7 7 7 8 8 9 9 9 10 10 10 10 10 9 9 9 9 9 9 9 9 9 9 9 9 9 9 9 9
6 6 6 7 7 7 7 6 6 6 6 6 6 6 6 6 7 7 7 8 9 9 9 9 9 9 9 9 9 9 9 9 9 9 9 9 9 9 9 9 9 8 8 8
6 6 6 6 6 7 6 6 5 4 5 6 6 6 6 6 7 7 7 8 8 9 9 9 9 9 9 9 9 9 8 8 8 8 8 8 8 8 8 8 8 8 8 8
6 6 6 6 6 6 6 6 5 5 5 6 5 5 6 6 6 6 6 7 8 9 9 9 9 9 9 9 8 8 8 8 8 8 8 8 8 8 8 8 8 7 7 7
6 6 6 6 6 6 6 6 6 7 6 5 5 5 6 7 7 7 7 7 8 8 9 9 8 8 8 8 8 8 8 8 8 7 7 7 7 7 7 7 7 7 6 6
5 6 6 6 6 6 6 5 5 4 4 5 5 5 5 7 6 6 7 7 8 8 8 8 8 8 8 8 8 8 8 7 7 7 7 7 7 7 7 7 6 6 6 6
5 5 5 5 6 6 6 4 4 5 6 6 6 5 6 7 7 6 6 6 8 8 8 8 8 8 8 8 8 7 7 7 7 7 7 7 6 6 6 6 6 6 6 6
5 5 5 5 5 5 5 5 5 4 4 5 5 6 6 6 6 6 6 7 7 8 8 8 8 8 7 7 7 7 7 7 7 6 6 6 6 6 6 6 6 6 5 5
4 3 3 4 5 5 5 5 4 5 4 3 3 5 6 5 5 6 6 7 8 8 8 8 8 7 7 7 7 7 7 7 6 6 6 6 6 6 6 6 5 5 5 5
4 4 4 5 5 5 5 5 4 4 3 2 3 5 6 5 5 6 6 7 7 8 8 8 7 7 7 7 7 7 7 6 6 6 6 6 5 5 5 5 5 5 5 4
4 3 4 5 5 4 4 4 4 3 3 3 3 4 5 5 5 5 7 7 7 7 7 7 7 7 7 7 6 6 6 6 6 5 5 5 5 5 5 5 5 4 4 4
3 3 2 2 3 3 3 4 3 3 3 4 4 4 5 5 5 6 6 7 7 7 7 7 7 7 7 7 6 6 6 6 5 5 5 5 5 4 4 4 4 4 3 3
2 2 2 2 3 3 3 3 3 3 4 3 4 4 5 5 5 5 6 6 6 7 7 7 7 7 7 6 6 6 6 5 5 5 5 4 4 4 4 4 3 3 3 3
1 2 2 2 2 3 4 4 3 3 3 3 4 5 5 4 4 5 6 6 6 7 7 6 6 6 6 6 6 5 5 5 5 5 4 4 4 4 3 3 3 3 3 2
1 2 2 2 3 4 6 5 4 4 4 3 4 4 4 4 5 6 7 7 7 6 6 6 6 6 6 6 5 5 5 5 4 4 4 4 3 3 3 3 3 2 2 2
1 2 2 2 2 3 4 5 4 4 4 4 3 4 4 5 4 5 6 6 6 6 6 6 6 5 5 5 5 5 4 4 4 4 4 3 3 3 3 2 2 2 2 2
0 1 1 1 2 3 5 5 5 4 4 5 4 4 4 4 3 4 6 6 6 6 5 5 5 5 5 5 5 4 4 4 4 3 3 3 2 2 2 2 2 1 1 1
0 0 1 1 1 2 4 4 5 5 5 6 5 5 4 3 4 5 5 5 5 5 5 5 5 4 4 4 4 4 4 3 3 3 2 2 2 2 2 1 1 1 1 1
1 0 1 1 1 3 4 3 4 4 5 5 5 5 5 5 5 4 4 4 4 4 4 4 4 4 4 4 3 3 3 3 2 2 2 2 2 1 1 1 1 1 0 0
0 1 1 2 3 4 4 4 5 5 5 5 5 5 5 4 4 4 4 4 4 4 4 4 3 3 3 3 3 3 3 2 2 2 2 2 1 1 1 1 0 0 0 -0
-0 0 0 0 1 3 4 5 5 5 5 5 4 4 4 4 4 3 3 3 3 3 3 3 3 3 3 3 2 2 2 2 1 1 1 1 1 1 0 0 0 -0 -0 -0
0 -0 -1 -0 1 2 4 5 5 5 4 4 4 4 3 3 3 3 3 3 3 3 3 3 2 2 2 2 2 2 2 1 1 1 1 1 1 0 0 -0 -0 -0 -1 -1
-0 0 0 2 3 2 4 5 4 4 4 3 3 3 3 2 2 2 2 2 2 2 2 2 2 2 2 2 2 2 1 1 1 1 0 0 0 -0 -0 -0 -0 -1 -1 -1
Wind_Speed
5 5 3 3 1 1 1 1 2 4 4 3 3 5 6 3 1 2 3 3 3 3 2 1 2 2 2 2 2 1 1 1 1 1 1 1 0 1 1 2 3 4 4 3
5 3 4 3 1 2 1 1 3 4 4 2 4 7 6 2 3 4 4 4 4 2 1 1 1 2 2 2 1 1 1 1 0 1 1 1 1 0 0 1 3 4 4 4
2 3 3 2 3 2 2 0 2 4 5 3 3 6 4 2 1 1 2 3 3 4 4 3 2 2 1 1 1 1 0 0 0 1 1 1 2 1 1 2 2 3 4 3
1 3 2 2 2 1 2 2 2 2 3 3 3 3 6 3 4 2 3 2 3 4 4 3 2 2 2 2 1 1 0 0 1 1 1 1 1 1 1 1 1 2 3 3
2 3 2 1 2 1 1 2 1 1 1 2 2 1 7 3 3 4 4 3 3 3 4 3 3 3 2 1 1 1 0 0 1 0 1 1 1 1 1 0 1 2 2 2
2 2 0 1 2 1 1 2 3 4 3 2 2 2 6 3 4 4 3 3 3 2 2 1 1 1 1 0 1 0 0 1 0 0 1 2 2 2 1 0 1 2 2 2
5 3 2 1 2 4 3 4 4 5 4 4 1 2 8 6 4 4 4 3 3 2 2 1 1 1 1 1 1 1 1 2 1 1 1 2 3 3 2 2 1 1 1 2
2 5 3 2 1 0 0 3 3 2 3 5 2 5 7 4 3 3 2 2 1 1 2 2 2 2 2 2 2 1 2 2 2 2 3 2 3 2 2 2 2 2 2 2
1 4 3 2 1 2 1 1 2 3 0 3 5 7 8 2 2 2 1 1 1 2 2 2 2 2 2 2 3 3 3 3 3 3 3 3 3 3 3 3 2 2 2 2
2 3 4 3 2 2 2 4 3 2 1 4 6 5 4 4 3 2 2 2 3 3 2 3 2 3 2 2 3 2 3 3 3 3 3 3 3 3 3 2 3 3 2 2
1 1 4 3 2 2 1 2 2 2 2 2 4 6 5 5 3 2 3 4 4 4 4 3 3 3 2 2 2 2 2 3 3 3 3 3 3 3 3 3 3 3 3 2
1 2 3 5 3 1 3 3 4 2 3 3 3 7 4 4 4 3 4 4 4 4 3 3 3 2 2 2 3 3 3 3 4 3 3 3 3 2 3 3 4 3 3 3
2 2 3 5 3 1 2 3 3 3 2 4 4 7 3 1 2 3 3 4 4 3 3 3 3 3 3 3 3 4 4 4 3 3 3 3 3 3 4 4 3 3 3 3
3 3 5 7 5 3 5 5 4 5 4 5 8 10 8 6 6 6 6 5 4 4 4 3 4 4 4 4 4 4 4 4 3 2 3 4 4 4 4 4 3 3 3 3
3 3 6 8 8 6 8 9 8 10 9 9 9 9 12 8 7 7 6 5 5 5 5 5 5 5 4 4 4 4 4 3 3 3 4 5 4 3 3 3 3 3 3 4
2 3 2 5 5 6 9 12 11 12 9 11 12 13 10 7 5 5 6 6 6 7 6 6 6 5 5 5 5 4 4 4 3 3 5 4 3 3 3 4 3 3 3 3
3 3 1 5 5 6 8 9 10 7 8 9 12 11 5 4 6 6 7 6 7 7 7 6 6 6 6 5 5 5 4 3 3 4 4 4 4 4 4 4 3 4 4 3
6 4 2 3 4 7 7 2 6 7 8 9 9 7 5 6 7 7 7 7 7 6 6 6 5 5 5 4 4 4 3 3 3 4 4 4 4 4 4 3 4 5 4 4
6 5 3 2 4 9 8 3 3 5 6 6 8 8 6 5 5 5 5 5 6 6 6 5 5 5 4 4 3 2 3 3 4 5 5 5 4 4 4 4 5 4 3 4
3 3 4 3 4 7 6 1 1 2 5 3 4 5 4 0 3 6 4 4 5 4 4 4 3 3 4 4 3 3 4 4 5 6 5 5 4 4 5 5 5 4 4 5
3 4 6 7 7 9 7 3 2 2 5 2 2 4 3 4 6 6 6 5 5 4 4 3 3 3 4 4 3 4 5 6 6 5 4 4 4 5 5 4 4 3 3 3
8 7 7 6 7 10 4 4 4 6 4 3 3 4 5 7 7 6 6 6 5 5 4 4 3 5 5 4 4 5 6 6 4 4 4 5 4 4 4 4 4 3 3 4
8 9 6 9 9 5 2 5 5 3 5 5 5 6 6 6 7 7 6 6 6 6 5 4 4 5 5 4 5 6 7 5 4 4 5 5 4 4 3 4 4 3 3 4
5 4 4 7 9 9 8 8 7 6 7 7 7 7 7 8 8 8 7 7 6 6 5 4 4 5 6 5 5 6 6 4 4 5 5 4 4 4 3 3 3 3 4 4
7 5 5 8 9 9 8 7 8 7 7 7 7 7 8 8 8 8 7 7 7 6 5 5 5 6 7 6 6 6 5 4 5 5 5 4 4 4 4 4 4 5 5 5
7 8 8 10 9 8 9 7 7 8 8 9 8 8 7 7 9 8 8 7 6 6 6 6 6 7 7 6 7 6 5 5 5 5 4 4 4 4 3 4 5 7 7 10
Wind_Direction
18 55 27 314 291 184 137 126 305 305 324 346 290 289 292 292 233 218 222 220 227 234 256 166 139 123 112 104 106 117 122 108 115 113 120 116 280 329 8 26 31 30 22 23
37 13 292 287 328 71 64 1 324 318 347 345 310 296 288 271 239 228 220 222 223 231 256 175 156 142 148 145 126 122 119 142 150 156 165 172 171 245 265 357 17 21 21 11
107 283 313 32 29 44 15 256 294 303 333 12 339 315 303 305 297 274 242 230 224 211 215 212 199 191 171 165 162 191 205 360 33 71 88 79 64 28 5 358 2 358 9 2
11 321 4 36 2 26 279 283 277 311 8 325 26 301 293 301 309 300 283 258 235 226 216 209 208 217 216 219 184 178 149 4 6 93 117 139 158 197 255 279 325 340 353 351
331 347 14 6 305 317 242 316 332 329 72 339 357 194 288 329 299 290 282 268 252 230 213 213 218 226 222 203 182 211 131 40 7 79 148 158 184 207 232 281 358 351 347 344
295 304 360 259 313 300 263 28 34 47 63 314 255 185 282 256 241 271 276 276 266 247 219 216 230 211 219 166 153 172 161 272 283 167 159 176 203 212 196 286 333 337 339 330
342 337 345 355 13 10 48 61 17 3 4 264 270 222 255 262 253 244 259 267 257 222 187 194 199 213 229 223 219 211 211 249 255 222 225 215 216 212 213 234 257 298 317 311
350 310 321 1 114 232 356 119 146 221 255 289 300 244 256 272 289 283 269 254 235 215 211 221 230 230 235 239 232 217 231 247 246 239 248 242 229 220 229 225 215 234 253 274
220 277 316 334 322 134 94 104 154 136 216 283 279 286 301 286 310 336 348 350 269 253 252 248 247 244 251 256 248 231 229 247 252 244 247 249 240 226 228 223 210 223 237 252
175 275 300 322 18 38 111 145 96 115 213 285 297 284 265 281 283 314 321 298 285 280 269 265 256 248 249 251 253 240 229 239 252 250 246 250 243 235 229 220 220 227 235 229
145 215 310 342 226 208 121 129 121 119 163 188 288 282 240 235 242 260 275 277 272 270 270 269 274 271 261 261 254 243 239 244 255 252 250 256 260 251 231 228 233 228 228 226
141 126 279 268 262 214 205 198 155 163 240 195 226 273 282 239 244 243 266 281 281 272 272 271 274 280 279 275 273 263 252 249 254 254 250 257 262 257 245 243 244 230 223 223
144 120 336 340 350 2 257 222 183 147 148 184 207 266 308 338 297 272 269 282 287 281 281 285 286 276 270 270 272 268 261 256 259 254 249 258 257 249 249 246 242 233 223 226
131 172 198 225 243 228 254 246 202 170 197 226 231 258 286 293 293 292 288 281 279 272 271 265 268 266 263 262 263 266 267 260 253 245 243 252 253 248 250 248 238 232 224 223
128 226 241 254 261 254 250 247 222 213 213 219 242 246 263 266 265 268 273 279 280 278 275 261 259 263 264 265 265 263 263 262 249 242 248 254 258 253 251 249 241 234 228 228
136 222 269 279 263 255 260 250 233 231 230 239 258 269 263 261 257 260 262 260 264 268 269 267 265 264 262 260 261 265 264 260 244 245 255 261 257 253 252 253 244 234 235 234
185 182 245 276 304 313 269 241 211 214 212 206 234 250 269 270 265 255 252 251 253 260 266 267 266 260 259 257 251 254 260 259 246 250 259 261 251 251 254 254 247 239 237 231
175 171 211 284 341 254 250 225 199 218 240 222 240 260 263 258 270 264 248 244 255 258 259 265 266 265 262 252 247 252 257 253 250 256 260 258 252 253 258 253 250 247 238 234
182 175 199 228 268 279 291 264 187 206 272 230 234 261 273 284 309 294 252 227 241 250 256 260 259 259 257 252 243 242 259 255 256 259 260 257 253 254 253 253 254 251 241 244
143 165 188 202 235 253 259 274 194 143 284 254 211 253 271 315 309 286 279 262 265 270 269 269 274 271 263 260 235 232 253 253 256 256 258 258 250 247 249 250 254 254 243 245
149 182 208 219 239 264 260 257 128 188 263 285 223 255 252 233 244 270 292 288 272 272 274 271 269 267 263 256 228 238 249 253 256 257 258 259 252 247 249 249 249 250 247 248
185 186 200 193 219 253 238 144 185 231 274 278 267 262 258 261 273 281 285 283 281 284 281 273 270 275 272 251 228 244 254 258 258 255 256 257 254 251 251 244 252 248 241 246
205 199 198 204 222 255 218 225 250 258 272 269 268 272 271 274 278 281 282 279 277 274 272 266 258 271 276 257 231 243 258 256 251 253 256 259 260 255 244 239 246 253 242 242
245 205 212 253 265 267 267 267 269 260 261 270 271 272 268 268 272 276 277 275 273 272 271 266 259 265 274 267 252 246 253 247 239 249 257 258 257 264 256 246 240 241 242 243
228 193 222 254 272 292 278 260 261 267 272 278 279 268 259 263 271 269 270 269 268 270 268 259 252 259 267 267 264 261 248 234 238 247 254 255 250 253 257 253 243 241 238 237
202 202 217 249 248 251 269 266 268 273 278 279 282 281 272 258 263 267 266 266 264 265 266 263 259 258 264 262 263 263 247 226 228 246 251 250 250 252 252 261 275 262 255 263
Height
1503 1507 1510 1509 1508 1507 1507 1508 1507 1505 1502 1502 1500 1498 1494 1493 1492 1493 1494 1494 1495 1496 1498 1499 1500 1501 1502 1503 1504 1506 1507 1507 1507 1508 1508 1507 1507 1507 1507 1507 1507 1506 1505 1505
1508 1511 1509 1507 1507 1506 1507 1508 1508 1505 1502 1502 1501 1498 1493 1492 1491 1491 1492 1492 1493 1494 1496 1497 1499 1500 1501 1502 1503 1504 1504 1505 1504 1504 1505 1505 1504 1504 1504 1504 1504 1504 1504 1503
1511 1512 1508 1508 1508 1508 1509 1509 1508 1508 1505 1503 1503 1498 1494 1491 1491 1490 1490 1491 1491 1492 1493 1496 1497 1498 1499 1500 1501 1502 1503 1503 1502 1502 1502 1502 1502 1502 1502 1502 1501 1501 1501 1501
1512 1510 1509 1509 1510 1508 1509 1508 1508 1507 1509 1511 1508 1509 1496 1493 1491 1490 1489 1489 1490 1491 1493 1494 1495 1496 1498 1499 1500 1501 1501 1501 1500 1500 1500 1500 1499 1500 1500 1500 1499 1499 1498 1498
1513 1511 1511 1511 1510 1509 1509 1508 1509 1509 1510 1513 1511 1511 1501 1495 1492 1489 1488 1488 1489 1490 1491 1493 1494 1496 1497 1498 1498 1499 1499 1499 1499 1498 1498 1498 1498 1497 1497 1497 1497 1497 1496 1496
1513 1512 1511 1511 1510 1509 1509 1510 1510 1514 1515 1514 1511 1512 1503 1497 1491 1488 1487 1487 1487 1489 1490 1492 1493 1495 1495 1496 1497 1497 1497 1497 1497 1497 1496 1496 1496 1495 1495 1495 1494 1494 1493 1493
1515 1513 1511 1510 1510 1510 1511 1515 1521 1520 1524 1517 1512 1511 1503 1490 1488 1487 1486 1486 1487 1488 1489 1491 1492 1493 1494 1494 1495 1495 1495 1496 1495 1495 1494 1494 1493 1493 1492 1492 1491 1491 1491 1490
1520 1518 1513 1511 1512 1513 1513 1514 1521 1520 1522 1519 1513 1511 1497 1488 1486 1485 1485 1485 1486 1487 1488 1489 1491 1492 1492 1492 1493 1493 1493 1493 1493 1492 1492 1491 1491 1490 1490 1489 1489 1489 1488 1488
1521 1519 1513 1512 1511 1512 1513 1517 1517 1523 1524 1523 1513 1506 1494 1486 1485 1485 1484 1484 1485 1486 1487 1488 1489 1490 1490 1491 1491 1491 1490 1490 1490 1490 1490 1489 1488 1488 1487 1486 1486 1486 1486 1485
1520 1521 1515 1513 1512 1512 1514 1516 1522 1522 1519 1516 1509 1506 1499 1488 1486 1485 1484 1484 1484 1485 1486 1487 1488 1488 1488 1488 1488 1488 1488 1488 1488 1487 1487 1486 1486 1485 1484 1483 1483 1483 1482 1481
1520 1522 1519 1516 1514 1514 1516 1516 1518 1523 1523 1522 1517 1504 1490 1487 1485 1485 1484 1483 1484 1484 1485 1485 1486 1486 1486 1486 1486 1485 1485 1485 1485 1484 1484 1483 1483 1482 1481 1480 1480 1480 1479 1478
1520 1524 1524 1518 1514 1513 1514 1513 1517 1519 1521 1527 1526 1508 1485 1485 1483 1484 1483 1483 1483 1483 1484 1484 1484 1484 1483 1483 1483 1482 1482 1482 1482 1481 1480 1480 1479 1478 1477 1477 1477 1476 1476 1475
1520 1523 1523 1516 1517 1516 1514 1513 1514 1517 1521 1527 1523 1504 1485 1484 1483 1483 1483 1482 1482 1482 1482 1482 1482 1481 1481 1481 1480 1480 1479 1479 1478 1478 1477 1476 1475 1475 1474 1474 1473 1473 1472 1471
1517 1522 1523 1517 1512 1512 1513 1511 1513 1516 1519 1519 1512 1498 1487 1485 1483 1482 1481 1481 1481 1480 1480 1480 1479 1479 1478 1478 1477 1477 1476 1476 1475 1474 1473 1472 1472 1471 1470 1469 1469 1468 1468 1467
1516 1520 1519 1516 1513 1512 1510 1507 1508 1509 1507 1507 1497 1495 1484 1482 1482 1480 1479 1479 1478 1478 1477 1477 1476 1476 1475 1475 1474 1474 1473 1472 1471 1470 1469 1469 1468 1467 1466 1465 1465 1464 1463 1463
1516 1518 1518 1514 1509 1509 1507 1501 1501 1500 1499 1497 1493 1488 1479 1478 1478 1477 1477 1476 1475 1475 1475 1474 1474 1473 1472 1472 1471 1470 1470 1469 1468 1467 1466 1465 1464 1463 1462 1461 1461 1460 1459 1458
1517 1518 1517 1514 1510 1505 1499 1489 1490 1491 1489 1489 1488 1480 1476 1476 1475 1474 1473 1473 1472 1472 1472 1471 1470 1470 1469 1468 1468 1467 1466 1465 1464 1463 1462 1461 1460 1458 1458 1457 1456 1455 1455 1454
1514 1516 1516 1515 1511 1503 1485 1480 1481 1482 1480 1481 1478 1475 1474 1474 1472 1471 1471 1470 1469 1469 1469 1468 1467 1466 1466 1465 1464 1463 1462 1461 1460 1459 1458 1456 1455 1454 1453 1452 1451 1451 1450 1449
1509 1512 1514 1515 1513 1500 1484 1479 1479 1481 1477 1474 1474 1473 1472 1471 1470 1468 1468 1467 1467 1467 1466 1465 1464 1463 1462 1461 1460 1459 1458 1457 1455 1454 1453 1452 1451 1449 1448 1447 1447 1446 1445 1444
1509 1510 1513 1513 1510 1500 1480 1477 1475 1478 1476 1471 1471 1470 1470 1470 1471 1466 1464 1464 1463 1463 1462 1461 1460 1459 1458 1457 1456 1454 1453 1452 1451 1450 1448 1447 1446 1445 1444 1443 1442 1441 1440 1440
1509 1511 1511 1509 1507 1493 1478 1475 1476 1481 1475 1470 1469 1468 1468 1467 1466 1464 1461 1460 1460 1459 1458 1457 1456 1455 1454 1453 1451 1449 1448 1447 1446 1445 1444 1442 1441 1440 1439 1438 1437 1436 1435 1435
1501 1504 1504 1504 1504 1491 1473 1474 1476 1473 1469 1468 1467 1466 1465 1463 1461 1459 1458 1456 1455 1454 1454 1453 1451 1450 1449 1448 1446 1444 1443 1442 1441 1440 1439 1438 1437 1436 1434 1433 1433 1432 1431 1430
1493 1490 1489 1489 1482 1473 1471 1470 1469 1468 1467 1465 1464 1463 1461 1459 1457 1455 1454 1452 1451 1450 1449 1448 1446 1445 1444 1443 1441 1439 1438 1437 1436 1435 1433 1433 1432 1431 1430 1429 1428 1427 1426 1425
1486 1483 1485 1483 1474 1469 1468 1467 1466 1465 1464 1462 1460 1459 1457 1455 1453 1451 1450 1448 1447 1446 1444 1443 1441 1440 1438 1437 1436 1434 1433 1432 1431 1429 1428 1427 1426 1425 1425 1424 1423 1422 1421 1420
1479 1480 1480 1476 1470 1466 1462 1462 1462 1460 1459 1457 1455 1454 1452 1450 1448 1447 1445 1443 1442 1441 1439 1438 1437 1435 1433 1432 1431 1429 1428 1427 1426 1424 1423 1422 1422 1421 1420 1419 1418 1417 1417 1416
1471 1472 1473 1467 1463 1463 1459 1458 1457 1456 1453 1452 1450 1447 1446 1445 1443 1441 1440 1438 1437 1436 1434 1433 1431 1430 1428 1427 1425 1424 1423 1422 1421 1419 1418 1417 1417 1416 1415 1414 1414 1413 1412 1411